sat.trackr.live / text

‹ back to catalog

FIREFLY-2

NORAD 62704 · 2025-009CZ

PAYLOAD ACTIVE UNKNOWN

§ Identity

Operator
Country
IND
Launch date
2025-01-14
Launch site
AFWTR
Launch vehicle
Mass (kg)
RCS (m²)

External: N2YO · Heavens-Above · Gunter

§ Orbital elements

Epoch: 2026-05-25T05:07:56.772192Z

Period
96.47 min
Inclination
97.7028°
Eccentricity
0.0006910
Mean motion
14.92753099 rev/d
Perigee alt
584.5 km
Apogee alt
594.2 km
Semi-major
6,967.5 km
B*
1.0998e-4
RAAN
223.6182°
Arg perigee
144.6663°
Mean anomaly
215.5016°
Rev number
7,389

§ Raw data

FIREFLY-21 62704U 25009CZ  26145.21385153  .00001081  00000+0  10998-3 0  99902 62704  97.7028 223.6182 0006910 144.6663 215.5016 14.92753099 73890

JSON: /api/v1/satellites/62704 · /tle

For live sub-satellite position, see the globe view (requires WebGL).

§ Visibility from observer

Set your observer location to see the next 7 days of passes ≥ 10°. The values pass through the URL so the page stays shareable.

No JS? Fill the form by hand. The geolocation button needs JavaScript.

§ Radio — SatNOGS DB

ModeDescriptionDownlinkUplink
FM Mode S - Transmitter 2.243 GHz
FM Mode X - Transmitter 8.100 GHz

2 transmitters · refreshed weekly from db.satnogs.org